Location: *
(46.4000°N, 12.6667°E)
Time: 09:09:27
(UTC+00:00)

Aureole 1 Rocket - Pass Details

Date: 09 April 2020
Orbit: 379 x 1379 km, 73.9° (Epoch: 02 June)

Event Time Altitude Azimuth Distance (km) Brightness Sun altitude
Rises 18:35:30 0° 194° (SSW) 4,206 7.2 -8.4°
Reaches altitude 10° 18:38:31 10° 194° (SSW) 3,132 6.6 -8.9°
Maximum altitude 18:45:55 77° 110° (ESE) 1,037 4.0 -10.1°
Drops below altitude 10° 18:51:39 10° 25° (NNE) 2,455 6.1 -11.0°
Sets 18:53:47 0° 24° (NNE) 3,251 6.8 -11.3°
